Погода в Джалалабаде

Погода в Джалалабаде : погода сейчас, прогноз погоды и архив. Всё, что Вы хотите узнать о погоде в Джалалабаде!

Поиск расширенной информации на нашем сайте:

Другие новости

Новости СМИ2

Главная страница сайта

Новости сайта

02.10.2013

Напоминаем, что на нашем новом сайте вы можете получить высокодетализированные прогнозы погоды по пунктам России, СНГ и мира (включающие важные для авиации метеовеличины, такие как направление и скорость ветра, видимость, явления погоды, количество и форма облачности, нижняя и верхняя граница облачности), а также ознакомиться с разнообразными материалами по авиационной метеорологии и подборкой полезных ссылок на эту тему.

Сайт Метеоцентр.Азия посвящён разработке технологий оптимизации авиаметеорологического обслуживания, включая проектирование и перспективное создание нескольких автоматизированных авиаметеорологических систем:
- система выпуска высокодетальных прогностических карт явлений погоды для нижнего воздушного пространства по России и ближнему зарубежью;
- система верификации прогнозов TAF (выпускаемых синоптиками официальных АМСГ РФ и ближнего зарубежья) и AUTOTAF (выпускаемых сайтом Метеоцентр.Азия) - выявление ошибок, онлайн-сопоставление с фактической погодой METAR, автоматическое внесение коррективов в прогнозы при резком отклонении фактической погоды от прогноза, подсчёт оправдываемости прогнозов по элементам и в целом;
- система обработки, анализа и отображения авиаметеорологической информации для применения провайдерами метеорологической информации.

Рекомендуем: Смотрите описание шкода на сайте.

Погода в Джалалабаде - сегодня

Время (UTC), дата Ветер
(°,м/с) 
Видим.   Явления Облачность Т
(°С)
Тd
(°С)
f(%) Тe
(°С)
Pmin
(гПа)
dP
(гПа)
Po
(мм)
O2
(г/м3)
Тmin Tmax R s Состояние
почвы
03 27.05.17 020 (С) 20000 м    ясно 
+22.7 +12.3 52 +27  1012.7  0.4  751  277           
06 27.05.17 050 (СВ) 20000 м    ясно 
+28.4 +9.9 32 +31  1009.8  -1.2  694  251  +17.1         
09 27.05.17 180 (Ю) 20000 м    ясно 
+31.7 +9.2 25 +33  1007.7  -1.1  694  248           
12 27.05.17 170 (Ю) 20000 м    ясно 
+31 +9.9 27 +34  1006.8  -1.1  694  249           
15 27.05.17 010 (С) н/о    ясно 
+24.6 +12.6 47 +31  1008.6  0.2  693  253    +32.5       
18 27.05.17 020 (С) н/о    ясно 
+19.6 +10.2 55 +24  1011.4  1.1  694  258    +32.5       
21 27.05.17 020 (С) н/о    ясно 
+18 +9 56 +20  1010.9  -0.9  693  260           
00 28.05.17 030 (СВ) 20000 м    ясно 
+17.5 +8.1 54 +18  1011  -0.1  694  261           
03 28.05.17 040 (СВ) 20000 м    ясно 
+24.9 +12.2 45 +29  1008.6  751  275           
06 28.05.17 180 (Ю) 20000 м    9/0 верхняя 
[Ci sp]
+31 +12.2 32 +37  1006.5  -0.4  693  248  +17.5         
09 28.05.17 020 (С) 20000 м    9/0 средняя, верхняя 
[Ac lent|Ci sp]
+31.1 +10.9 29 +35  1005.7  -0.8  692  248           
12 28.05.17 350 (С) 20000 м    9/0 верхняя 
[Ci sp]
+25.1 +10.4 40 +28  1008.4  694  254           
15 28.05.17 340 (С) н/о    10/0 средняя 
[As op]
+22.4 +13.4 57 +30  1010.7  1.4  694  255    +32.4       
18 28.05.17 020 (С) н/о    ясно 
+19.2 +9.2 52 +22  1012.3  0.5  694  259    +32.4       
21 28.05.17 010 (С) н/о    ясно 
+18 +8.2 53 +19  1012  -0.6  694  260           
00 29.05.17 020 (С) 20000 м    ясно 
+16.4 +8.4 59 +18  1011.4  -0.4  695  262           
03 29.05.17 010 (С) 20000 м    ясно 
+24.1 +11.5 45 +24  1010.1  0.4             
06 29.05.17 150 (ЮВ) 20000 м    ясно средняя, верхняя 
[As trans|Cs]
+31.1 +10.6 28 +35  1006.5    693  248  +5.1  +30    мокрый или
старый снег
50-90% 
09 29.05.17 270 (З) 20000 м    ясно 
+33 +4.6 17 +33  1004.4  -1.6  692  247           
12 29.05.17 160 (Ю) 20000 м    8/0 верхняя 
[Ci fib]
+30.8 +9 26 +32  1003.3  -1.5  691  249           
15 29.05.17 270 (З) н/о    10/0 средняя 
[As op]
+25.4 +11.3 41 +30  1007.4  2.4  692  252    +33.5       
18 29.05.17 170 (Ю) н/о    8/0 верхняя 
[Ci fib]
+24.5 +13.1 49 +32  1008.5  0.8  693  253    +33.5       
21 29.05.17 020 (С) н/о    4/0 верхняя 
[Ci fib]
+21.7 +10.6 49 +25  1009  -0.3  693  256           
00 30.05.17 290 (З) 20000 м  {ливн. осадки}  10/10 600 м кучево-дожд. 
[Cb cap]
+16.2 +14.6 90 +28  1015.5  4.5  697  262           
03 30.05.17 160 (Ю) 20000 м  {ливн. осадки}  10/0 средняя 
[As op]
+18.2 +12.3 68 +26  1017.1  697  260         
Время (UTC), дата Ветер
(°,м/с) 
Видим.   Явления Облачность Т
(°С)
Тd
(°С)
f(%) Тe
(°С)
Pmin
(гПа)
dP
(гПа)
Po
(мм)
O2
(г/м3)
Тmin Tmax R s Состояние
почвы

Для получения пояснительной информации подведите курсор к названию столбца.

ПОГОДА в Джалалабаде - архив

Всё, что Вы хотите узнать о погоде в Джалалабаде - удобно и подробно!

Выберите нужную дату (начиная с 1 января 2015* года) и нажмите кнопку "Найти".
Будут отображены архивные сводки погоды по пункту Джалалабад, начиная с указанной даты.


Отображать данные в формате CSV (для использования в таблицах Excel)


Внимание! Наш архив погоды предназначен исключительно для личного некоммерческого использования в познавательных целях. Если Вам необходимы официальные справки о состоянии погоды (для производственных, юридических, коммерческих и т.п. целей), обращайтесь в органы Росгидромета.

*Примечание: данная дата относится к архиву по метеостанциям СССР (Россия, СНГ, Балтия).
Архив по метеостанциям Зарубежной Европы и Азии (кроме Китая) хранится 10 дней, по другим регионам земного шара (Китай, Африка, Америка, Австралия, Океания) - 1 день.

Джалалабад - район местоположения метеостанции


Название, широта, долгота, высота метеостанции:
Джалалабад 40.9°ш. 72.9°д. 765 м над ур. моря [Кыргызстан]

Дополнительная информация

В oтличие oт бoльшинства пoгoдных сайтoв мы публикуем пoдрoбную метеoинфoрмацию в детальнoм прoфессиoнальнoм фoрмате.

Характеристики температуры и влажнoсти вoздуха измеряются на высoте 2 м в тени вдали oт зданий и деревьев.
Скoрoсть ветра измеряется на высoте 10 м (на урoвне рoста челoвека скoрoсть ветра ниже в 1.5-2 раза). Если метеoстанция нахoдится в гoрoде или в лесу, тo скoрoсть ветра занижена на 2-4 м/с пo сравнению с oткрытым местoм. Скoрoсть ветра над акватoриями крупных рек и oзёр, а также на вершинах хoлмoв на 2-5 м/с выше, чем в oбычных услoвиях.
Атмoсфернoе давление в разных тoчках местнoсти мoжет значительнo oтличаться oт давления на метеoстанции, в зависимoсти oт услoвий рельефа (при пoдъёме на 10 м давление пoнижается примернo на 1 мм рт.ст.).